• In Latvia
  • List of Countries
  • For 7 days
  • Water Temperature
  • Satellite Maps
  • Weather Map
  • Weather Widgets
  • user-avatar
    Login

    Hourly Weather Proletarskiy

    Today, 18 July, Wednesday

    Time Temperature Precipitation Wind Pressure Humidity
    00:00 +19°C° 0 mm 3 mps 730 mmHg 75%
    01:00 +19°C° 0 mm 3 mps 730 mmHg 75%
    02:00 +18°C° 0 mm 2 mps 730 mmHg 74%
    03:00 +19°C° 0 mm 2 mps 730 mmHg 74%
    04:00 +19°C° 0 mm 2 mps 730 mmHg 74%
    05:00 +19°C° 0 mm 2 mps 730 mmHg 74%
    06:00 +19°C° 0 mm 2 mps 730 mmHg 74%
    07:00 +21°C° 0 mm 2 mps 730 mmHg 67%
    08:00 +24°C° 0 mm 2 mps 730 mmHg 59%
    09:00 +27°C° 0 mm 2 mps 729 mmHg 51%
    10:00 +28°C° 0 mm 2 mps 729 mmHg 48%
    11:00 +30°C° 0 mm 2 mps 729 mmHg 44%
    12:00 +31°C° 0 mm 2 mps 729 mmHg 40%
    13:00 +31°C° 0 mm 3 mps 729 mmHg 40%
    14:00 +31°C° 0 mm 3 mps 729 mmHg 40%
    15:00 +31°C° 0 mm 3 mps 729 mmHg 40%
    16:00 +30°C° 0.1 mm 2 mps 729 mmHg 45%
    17:00 +29°C° 0.1 mm 2 mps 729 mmHg 50%
    18:00 +29°C° 0.1 mm 1 mps 729 mmHg 55%
    19:00 +27°C° 0 mm 1 mps 729 mmHg 60%
    20:00 +25°C° 0 mm 1 mps 729 mmHg 65%
    21:00 +23°C° 0 mm 1 mps 728 mmHg 70%
    22:00 +22°C° 0 mm 1 mps 728 mmHg 72%
    23:00 +22°C° 0 mm 1 mps 728 mmHg 75%

    Tomorrow, 19 July, Thursday

    Time Temperature Precipitation Wind Pressure Humidity
    00:00 +21°C° 0 mm 1 mps 728 mmHg 77%
    01:00 +21°C° 0.1 mm 1 mps 728 mmHg 77%
    02:00 +20°C° 0.1 mm 1 mps 728 mmHg 78%
    03:00 +20°C° 0.1 mm 1 mps 728 mmHg 78%
    04:00 +20°C° 0.1 mm 1 mps 728 mmHg 76%
    05:00 +20°C° 0.1 mm 1 mps 728 mmHg 74%
    06:00 +20°C° 0.1 mm 1 mps 728 mmHg 72%
    07:00 +22°C° 0 mm 1 mps 728 mmHg 68%
    08:00 +24°C° 0 mm 1 mps 728 mmHg 63%
    09:00 +26°C° 0 mm 1 mps 728 mmHg 58%
    10:00 +27°C° 0.2 mm 1 mps 729 mmHg 58%
    11:00 +27°C° 0.2 mm 2 mps 729 mmHg 57%
    12:00 +28°C° 0.2 mm 2 mps 729 mmHg 57%
    13:00 +27°C° 0.3 mm 2 mps 729 mmHg 58%
    14:00 +27°C° 0.3 mm 2 mps 729 mmHg 58%
    15:00 +27°C° 0.3 mm 1 mps 729 mmHg 59%
    16:00 +28°C° 0.1 mm 1 mps 729 mmHg 57%
    17:00 +28°C° 0.1 mm 1 mps 729 mmHg 56%
    18:00 +28°C° 0.1 mm 1 mps 729 mmHg 55%
    19:00 +26°C° 0 mm 1 mps 729 mmHg 61%
    20:00 +24°C° 0 mm 1 mps 729 mmHg 68%
    21:00 +22°C° 0 mm 1 mps 729 mmHg 74%
    22:00 +22°C° 0 mm 1 mps 729 mmHg 76%
    23:00 +21°C° 0 mm 1 mps 729 mmHg 77%

    Day after tomorrow, 20 July, Friday

    Time Temperature Precipitation Wind Pressure Humidity
    00:00 +21°C° 0 mm 1 mps 729 mmHg 78%
    01:00 +20°C° 0 mm 1 mps 729 mmHg 78%
    02:00 +20°C° 0 mm 1 mps 729 mmHg 78%
    03:00 +20°C° 0 mm 1 mps 729 mmHg 77%
    04:00 +20°C° 0 mm 1 mps 729 mmHg 76%
    05:00 +20°C° 0 mm 1 mps 729 mmHg 75%
    06:00 +20°C° 0 mm 1 mps 729 mmHg 74%
    07:00 +23°C° 0 mm 1 mps 729 mmHg 68%
    08:00 +25°C° 0 mm 1 mps 729 mmHg 61%
    09:00 +28°C° 0 mm 1 mps 730 mmHg 54%
    10:00 +29°C° 0 mm 1 mps 730 mmHg 51%
    11:00 +30°C° 0 mm 1 mps 730 mmHg 48%
    12:00 +31°C° 0 mm 1 mps 730 mmHg 45%
    13:00 +32°C° 0.3 mm 2 mps 730 mmHg 44%
    14:00 +32°C° 0.3 mm 2 mps 730 mmHg 43%
    15:00 +32°C° 0.3 mm 2 mps 730 mmHg 42%
    16:00 +31°C° 0.4 mm 1 mps 729 mmHg 47%
    17:00 +30°C° 0.4 mm 1 mps 729 mmHg 52%
    18:00 +29°C° 0.4 mm 1 mps 729 mmHg 56%
    19:00 +28°C° 0.5 mm 1 mps 730 mmHg 61%
    20:00 +26°C° 0.5 mm 1 mps 730 mmHg 65%
    21:00 +25°C° 0.5 mm 1 mps 730 mmHg 69%
    22:00 +24°C° 0.4 mm 1 mps 730 mmHg 74%
    23:00 +23°C° 0.4 mm 2 mps 730 mmHg 78%

    21 July, Saturday

    Time Temperature Precipitation Wind Pressure Humidity
    00:00 +21°C° 0.4 mm 2 mps 730 mmHg 82%
    01:00 +20°C° 0.7 mm 2 mps 730 mmHg 85%
    02:00 +20°C° 0.7 mm 2 mps 730 mmHg 87%
    03:00 +19°C° 0.7 mm 2 mps 730 mmHg 90%
    04:00 +19°C° 0.4 mm 2 mps 730 mmHg 90%
    05:00 +19°C° 0.4 mm 2 mps 730 mmHg 89%
    06:00 +20°C° 0.4 mm 2 mps 730 mmHg 89%
    07:00 +23°C° 0 mm 2 mps 731 mmHg 80%
    08:00 +25°C° 0 mm 2 mps 731 mmHg 71%
    09:00 +28°C° 0 mm 2 mps 731 mmHg 62%
    10:00 +29°C° 0.1 mm 2 mps 731 mmHg 58%
    11:00 +30°C° 0.1 mm 2 mps 731 mmHg 53%
    12:00 +31°C° 0.1 mm 2 mps 731 mmHg 49%
    13:00 +31°C° 0.2 mm 2 mps 731 mmHg 50%
    14:00 +31°C° 0.2 mm 2 mps 731 mmHg 51%
    15:00 +31°C° 0.2 mm 2 mps 731 mmHg 52%
    16:00 +30°C° 0.2 mm 2 mps 731 mmHg 55%
    17:00 +30°C° 0.2 mm 2 mps 731 mmHg 59%
    18:00 +29°C° 0.2 mm 1 mps 731 mmHg 63%
    19:00 +27°C° 0.3 mm 2 mps 731 mmHg 69%
    20:00 +26°C° 0.3 mm 2 mps 731 mmHg 74%
    21:00 +24°C° 0.3 mm 2 mps 731 mmHg 79%
    22:00 +23°C° 0.3 mm 2 mps 731 mmHg 83%
    23:00 +23°C° 0.3 mm 2 mps 731 mmHg 86%

    22 July, Sunday

    Time Temperature Precipitation Wind Pressure Humidity
    00:00 +21°C° 0.3 mm 2 mps 731 mmHg 89%
    01:00 +21°C° 0.2 mm 2 mps 731 mmHg 90%
    02:00 +20°C° 0.2 mm 2 mps 731 mmHg 91%
    03:00 +20°C° 0.2 mm 2 mps 731 mmHg 92%
    04:00 +20°C° 0 mm 2 mps 731 mmHg 91%
    05:00 +21°C° 0 mm 1 mps 731 mmHg 91%
    06:00 +21°C° 0 mm 1 mps 731 mmHg 90%
    07:00 +24°C° 0 mm 1 mps 731 mmHg 82%
    08:00 +26°C° 0 mm 1 mps 731 mmHg 73%
    09:00 +28°C° 0 mm 1 mps 731 mmHg 64%
    10:00 +29°C° 0.2 mm 1 mps 731 mmHg 61%
    11:00 +30°C° 0.2 mm 1 mps 731 mmHg 57%
    12:00 +31°C° 0.2 mm 1 mps 731 mmHg 53%
    13:00 +31°C° 0.6 mm 1 mps 731 mmHg 55%
    14:00 +31°C° 0.6 mm 1 mps 730 mmHg 57%
    15:00 +31°C° 0.6 mm 1 mps 730 mmHg 58%
    16:00 +30°C° 1.1 mm 1 mps 730 mmHg 61%
    17:00 +29°C° 1.1 mm 1 mps 730 mmHg 64%
    18:00 +29°C° 1.1 mm 1 mps 730 mmHg 66%
    19:00 +27°C° 0.5 mm 1 mps 730 mmHg 71%
    20:00 +26°C° 0.5 mm 2 mps 730 mmHg 75%
    21:00 +24°C° 0.5 mm 2 mps 730 mmHg 79%
    22:00 +23°C° 0.1 mm 2 mps 730 mmHg 81%
    23:00 +23°C° 0.1 mm 2 mps 730 mmHg 83%

    23 July, Monday

    Time Temperature Precipitation Wind Pressure Humidity
    00:00 +21°C° 0.1 mm 2 mps 730 mmHg 85%
    01:00 +21°C° 0.1 mm 2 mps 730 mmHg 86%
    02:00 +20°C° 0.1 mm 2 mps 730 mmHg 88%
    03:00 +20°C° 0.1 mm 2 mps 730 mmHg 89%
    04:00 +21°C° 0.4 mm 1 mps 730 mmHg 90%
    05:00 +21°C° 0.4 mm 1 mps 730 mmHg 90%
    06:00 +21°C° 0.4 mm 1 mps 730 mmHg 90%
    07:00 +23°C° 0.1 mm 1 mps 730 mmHg 83%
    08:00 +26°C° 0.1 mm 1 mps 730 mmHg 75%
    09:00 +26°C° 0.1 mm 0 mps 730 mmHg 68%
    10:00 +29°C° 0.1 mm 1 mps 730 mmHg 63%
    11:00 +30°C° 0.1 mm 1 mps 730 mmHg 59%
    12:00 +31°C° 0.1 mm 1 mps 730 mmHg 54%
    13:00 +32°C° 0.3 mm 1 mps 729 mmHg 53%
    14:00 +32°C° 0.3 mm 1 mps 729 mmHg 52%
    15:00 +32°C° 0.3 mm 1 mps 729 mmHg 51%
    16:00 +32°C° 0.4 mm 1 mps 729 mmHg 53%
    17:00 +32°C° 0.4 mm 1 mps 729 mmHg 55%
    18:00 +31°C° 0.4 mm 1 mps 729 mmHg 57%
    19:00 +29°C° 0.4 mm 1 mps 729 mmHg 62%
    20:00 +28°C° 0.4 mm 1 mps 729 mmHg 67%
    21:00 +26°C° 0.4 mm 1 mps 729 mmHg 72%
    22:00 +25°C° 0 mm 1 mps 729 mmHg 75%
    23:00 +24°C° 0 mm 1 mps 729 mmHg 77%
    Show more